Find Starlink 30983

NORAD ID: 58514 Int'l Des: 2023-191 Owner: SPXS Country: US Constellation: starlink operational
LEOCIRCULAR

現在のビュー

3D地球を読み込み中...

About Starlink 30983

Starlink 30983 (NORAD 58514) is a starlink constellation satellite (v2 mini) launched Dec 7, 2023 by SPXS of US. It operates in LEO, CIRCULAR orbit with a mass of 730.00 kg.

Starlink 30983について

説明を読み込み中...

次回通過

Passes for default location (London). Set your location on the main map for personalized predictions.

高度履歴

Loading altitude history...

軌道要素

1 58514U 23191G 26169.53285393 .00000273 00000-0 19438-4 0 9992
2 58514 43.0007 253.9565 0001335 264.0087 96.0613 15.27581827140548
Epoch: Jun 18, 2026 • Age: 9 hours

現在のステータス

高度 483.0 km
速度 7.63 km/s
衛星直下点 -0.79°S, 10.75°E
打ち上げ日 Dec 7, 2023
運用期間 2.5 years
タイプ internet

技術仕様

分類 Payload
質量 730.00 kg
乾燥質量 700.00 kg
総質量 730.00 kg
長さ 0.30 m
直径 4.10 m
スパン 29.00 m
形状 Box + pan
製造者 SPXS
バスタイプ Starlink V2M
フェーズステータス In Orbit
所有者/国 SPXS/US

Most Searched